Preview of NWS' New Version of Forecast
This preview is not operational and should not be used for support decisions.
Latest weather observations around

Charleston, Charleston Air Force Base (KCHS)

Using English Units (Switch to International System of Units)
Date/ Time (EST) Wind (mph) Vis. (mi) Weather Sky Cond. Temp (°F) Rel. Humidity Wind Chill (°F) Heat Index (°F) Pressure Precip. (in)
Air Dwpt 6 hour Altimeter (inHg) Sea level (inHg) 1 hr 3 hr 6 hr
Max Min
Jan 21 04:56 NNW 8 10 Clear CLR 32 19     58% 25   30.2 30.19      
Jan 21 03:56 NNW 9 10 Clear CLR 34 18     51% 27   30.18 30.18      
Jan 21 02:56 NW 9 10 Clear CLR 34 18     51% 27   30.15 30.15      
Jan 21 01:56 NW 8 10 Clear CLR 35 18     49% 29   30.15 30.14      
Jan 21 00:56 NW 9 10 Clear CLR 37 18     46% 30   30.13 30.12      
Jan 20 23:56 NW 11 10 Clear CLR 40 18     41% 33   30.1 30.1      
Jan 20 22:56 NW 9 10 Clear CLR 41 20     43% 35   30.08 30.07      
Jan 20 21:56 WNW 10 10 Clear CLR 43 21     41% 37   30.05 30.04      
Jan 20 20:56 WNW 11 10 Clear CLR 45 23     42% 39   30.01 30.01      
Jan 20 19:56 NW 11 10 Clear CLR 47 25     42% 42   29.97 29.97      
Jan 20 18:56 NW 13 10 Clear CLR 48 25     40% 43   29.92 29.92      
Jan 20 17:56   10 Clear CLR 50 25     37%     29.88 29.87      
Jan 20 16:56 WNW 16 10 Mostly Clear FEW048 54 33     45%     29.81 29.8      
Jan 20 15:56 WNW 15 10 Mostly Clear FEW046 54 33     45%     29.77 29.76      
Jan 20 14:56 WNW 20 10 Partly Cloudy and Windy SCT042 52 33     48%     29.74 29.74      
Jan 20 13:56   10 Mostly Cloudy BKN040 50 33     52%     29.72 29.72      
Jan 20 12:56 WNW 17 10 Partly Cloudy SCT036 SCT043 51 34     52%     29.72 29.71      
Jan 20 11:56   10 Mostly Cloudy BKN032 48 35     61%     29.72 29.72      
Jan 20 10:56 W 21 10 Mostly Cloudy and Windy SCT022 BKN030 BKN035 50 37     61%     29.69 29.69      
Jan 20 10:04   10 Cloudy FEW019 BKN024 OVC041 52 45     77%     29.65        
Jan 20 09:56 W 14 10 Cloudy SCT022 SCT027 OVC040 53 46     77%     29.65 29.64      
Jan 20 09:40 WNW 17 10 Cloudy FEW022 BKN032 OVC039 53 46     77%     29.64        
Jan 20 09:19 W 17 10 Cloudy SCT018 BKN029 OVC040 55 49     80%     29.62        
Jan 20 08:56 W 17 10 Mostly Cloudy SCT016 SCT021 BKN150 56 51     84%     29.61 29.61      
Jan 20 08:47 W 13 10 Mostly Cloudy SCT017 BKN150 56 51     84%     29.6        
Jan 20 08:28 W 13 10 Mostly Cloudy BKN017 BKN150 55 51     86%     29.6        
Jan 20 07:56 WSW 9 10 Mostly Cloudy SCT015 BKN120 55 52     89%     29.59 29.58      
Jan 20 07:40 WSW 15 10 Mostly Cloudy FEW009 SCT015 BKN120 55 52     89%     29.58        
Jan 20 06:56 W 9 10 Mostly Cloudy BKN009 BKN012 55 53     93%     29.58 29.57     1
Jan 20 06:48 WSW 11 10 Mostly Cloudy BKN009 BKN012 55 53     93%     29.58        
Jan 20 06:09 WSW 11 10 Cloudy OVC013 56 53     90%     29.59        
Jan 20 05:56 W 11 10 Cloudy OVC015 56 54     93%     29.59 29.59      
Jan 20 05:37 WSW 10 10 Mostly Cloudy BKN016 BKN055 56 54     93%     29.58        
Jan 20 04:56 WSW 9 10 Mostly Cloudy SCT035 BKN044 BKN055 57 55     93%     29.58 29.57 0    
Jan 20 04:47 SW 9 10 Mostly Cloudy SCT030 BKN036 BKN046 57 55     93%     29.58   0    
Jan 20 04:26 SSW 9 10 Light Rain BKN027 BKN044 OVC090 56 55     97%     29.58   0    
Jan 20 03:56 WSW 8 9 Light Rain FEW055 BKN070 OVC080 57 55     93%     29.59 29.59 0 1  
Jan 20 03:47 WSW 7 7 Light Rain FEW031 BKN050 OVC080 57 55     93%     29.58   0    
Jan 20 03:01 W 14 3 Rain and Fog/Mist SCT009 BKN028 OVC038 58 56     93%     29.61   0    
Jan 20 02:56 WSW 15 2.5 Heavy Rain and Fog/Mist BKN011 BKN026 OVC038 58 56     93%     29.61 29.61 0    
Jan 20 02:38   2 Heavy Rain and Fog/Mist FEW007 BKN011 OVC034 61 59     93%     29.61   0    
Jan 20 02:32 WSW 16 1.75 Heavy Rain and Fog/Mist FEW009 BKN015 OVC036 62 60     93%     29.61   0    
Jan 20 02:26 SW 17 2 Heavy Rain and Fog/Mist SCT013 BKN018 OVC035 62 60     93%     29.61   0    
Jan 20 02:23 SW 21 3 Heavy Rain and Fog/Mist BKN013 BKN018 OVC041 62 60     93%     29.61   0    
Jan 20 01:56   4 Heavy Rain and Fog/Mist BKN048 OVC080 63 59     87%     29.6 29.6 0    
Jan 20 00:56   10 Cloudy SCT120 OVC150 68 57     68%     29.61 29.6      
Jan 19 23:56   10 Cloudy FEW075 OVC150 69 59     70%     29.63 29.63      
Jan 19 22:56   10 Cloudy SCT075 OVC150 69 59     70%     29.68 29.67      
Jan 19 21:56   10 Mostly Cloudy FEW090 BKN150 67 57     71%     29.7 29.7      
Jan 19 20:56   10 Mostly Cloudy FEW100 BKN150 66 57     73%     29.73 29.73      
Jan 19 19:56 S 15 10 Mostly Cloudy FEW120 BKN200 63 56     78%     29.76 29.75      
Jan 19 18:56 S 13 10 Mostly Cloudy BKN200 62 52     70%     29.78 29.78      
Jan 19 17:56 S 13 10 Mostly Cloudy FEW080 BKN200 63 49     60%     29.82 29.81      
Jan 19 16:56 SSW 13 10 Mostly Cloudy FEW090 BKN200 67 46     47%     29.84 29.84      
Jan 19 15:56 SSW 15 10 Mostly Cloudy FEW085 BKN200 71 45     39%   70 29.87 29.87      
Jan 19 14:56 SW 15 10 Mostly Cloudy SCT085 BKN200 71 46     41%   70 29.9 29.9      
Jan 19 13:56 SW 15 10 Mostly Cloudy SCT095 BKN200 72 48     43%   71 29.93 29.92      
Jan 19 12:56 SSW 15 10 Mostly Cloudy FEW020 BKN060 BKN200 70 49     47%     29.97 29.96      
Jan 19 11:56 S 13 10 Mostly Cloudy FEW018 BKN050 BKN180 69 53     57%     30.01 30.01      
Jan 19 10:56 SE 8 10 Mostly Cloudy FEW009 SCT040 BKN120 62 57     84%     30.04 30.04      
Jan 19 09:56 ESE 8 9 Mostly Cloudy SCT005 BKN030 BKN042 57 55     93%     30.05 30.05      
Jan 19 09:54 ESE 9 9 Mostly Cloudy SCT005 BKN030 BKN042 57 55     94%     30.05        
Jan 19 09:34 ESE 7 0.5 Partly Cloudy SCT004 56 56     100%     30.05        
Jan 19 09:15 SE 6 0.5 Mostly Cloudy BKN004 56 55     97%     30.05        
Jan 19 08:56 ESE 6 0.5 Fog/Mist OVC002 55 55     100%     30.05 30.05      
Jan 19 08:30 ESE 5 0.5 Fog/Mist VV002 55 55     100%     30.05        
Jan 19 08:23 ESE 5 0.25 Fog VV002 55 55     100%     30.05        
Jan 19 07:56 ESE 7 0.25 Fog VV002 54 54     100%     30.04 30.04      
Jan 19 07:34 ESE 9 0.25 Fog VV002 54 54     100%     30.04        
Jan 19 06:56 ESE 6 0.5 Fog OVC002 54 53     97%     30.05 30.04     0
Jan 19 06:50 ESE 7 0.5 Fog OVC003 54 53     97%     30.05        
Jan 19 06:39 ESE 5 4 Fog/Mist BKN003 BKN036 54 53     97%     30.05        
Jan 19 05:56 Calm 5 Fog/Mist OVC002 54 53     97%     30.05 30.05      
Jan 19 05:42 Calm 5 Fog/Mist OVC002 54 53     97%     30.05        
Jan 19 04:56 ENE 3 6 Fog/Mist OVC003 55 54     96%     30.05 30.05      
Jan 19 04:19 ENE 5 5 Fog/Mist OVC002 55 54     96%     30.06        
Jan 19 03:56 ENE 5 4 Fog/Mist OVC003 55 54     96%     30.07 30.06   0  
Jan 19 03:43 ENE 3 5 Fog/Mist BKN003 OVC036 55 54     96%     30.07        
Jan 19 03:31 ENE 3 4 Fog/Mist BKN004 BKN039 55 54     96%     30.07        
Jan 19 02:56 Calm 6 Fog/Mist SCT005 SCT033 BKN060 56 54     93%     30.09 30.08      
Jan 19 01:56 E 3 7 Mostly Cloudy SCT005 BKN035 56 54     93%     30.1 30.1 0    
Jan 19 01:31 SE 3 8 Cloudy BKN005 OVC025 56 55     97%     30.11   0    
Jan 19 00:56 S 7 7 Light Rain OVC004 56 54     93%     30.12 30.11 0   0
Jan 19 00:38 SSW 5 7 Cloudy OVC004 56 54     93%     30.12        
Jan 19 00:11 S 5 10 Cloudy BKN005 OVC022 56 53     90%     30.13        
Jan 18 23:56 S 6 10 Cloudy FEW006 OVC022 56 53     90%     30.13 30.13      
Jan 18 22:56 S 5 10 Cloudy OVC027 56 53     90%     30.13 30.12      
Jan 18 21:56 S 6 10 Cloudy BKN035 OVC040 56 51     84%     30.12 30.12      
Jan 18 20:56 Calm 10 Mostly Cloudy FEW050 BKN085 56 50     80%     30.11 30.11      
Jan 18 19:56 WSW 3 10 Mostly Cloudy SCT050 BKN080 58 51     78%     30.12 30.11      
Jan 18 18:56 Calm 10 Mostly Cloudy BKN055 BKN075 59 50     72%     30.1 30.09      
Jan 18 17:56 W 5 10 Mostly Cloudy BKN065 BKN200 59 50     72%     30.1 30.1      
Jan 18 16:56 W 5 10 Mostly Cloudy BKN060 BKN200 62 49     62%     30.08 30.08      
Jan 18 15:56 WNW 6 10 Mostly Cloudy FEW030 SCT065 BKN200 64 49     58%     30.07 30.07      
Jan 18 14:56 SW 7 10 Mostly Cloudy FEW030 BKN200 64 49     58%     30.08 30.07      
Jan 18 13:56 Calm 10 Mostly Cloudy SCT028 SCT070 BKN200 63 48     58%     30.08 30.07      
Jan 18 13:47 W 3 10 Mostly Cloudy SCT028 SCT070 BKN200 62 48     60%     30.08        
Jan 18 13:01 WNW 9 10 Mostly Cloudy BKN025 BKN070 61 47     60%     30.11        
Jan 18 12:56 W 8 10 Mostly Cloudy SCT025 BKN070 BKN200 61 48     62%     30.11 30.11      
Jan 18 11:56 WNW 8 10 Mostly Cloudy SCT020 BKN070 BKN200 61 45     56%     30.15 30.15      
Jan 18 10:56 6 10 Mostly Cloudy FEW070 BKN200 59 45     60%     30.17 30.16      
Jan 18 09:56 SW 5 10 Mostly Cloudy SCT070 BKN200 55 46     72%     30.17 30.17      
Jan 18 08:56 WSW 5 10 Mostly Cloudy SCT045 BKN200 52 46     80%     30.16 30.15      
Jan 18 07:56 Calm 10 Cloudy FEW030 BKN045 OVC060 51 47     86%     30.15 30.14      
Jan 18 06:56 WSW 5 10 Cloudy FEW030 OVC036 50 46     86%     30.15 30.14      
Jan 18 05:56 WSW 5 10 Cloudy FEW030 OVC035 50 46     86%     30.14 30.13      
May 15 11:56 SSE 17 10 Mostly Cloudy SCT025 BKN035 BKN100 82 71     69%   86 30.05 30.04      
May 15 04:52 SE 8 10 Clear   75 72     89%   77 30        
May 14 20:56 S 7 10 Mostly Cloudy SCT075 BKN200 75 68     79%   76 30.04 30.04      
May 14 13:56 SSE 9 10 Mostly Cloudy SCT035 BKN050 BKN200 85 70     61%   89 30.06 30.06      
May 14 11:56 3 10 Mostly Cloudy BKN030 BKN200 81 68     65%   84 30.09 30.09      
May 14 04:56 Calm 8 Fog FEW002 FEW250 70 68     93%     30.04 30.03      
May 13 08:56 SSW 9 10 Clear CLR 78 69     74%   79 30.12 30.11      
May 13 00:56 S 6 10 Clear CLR 71 69     93%   72 30.12 30.11      
May 12 06:56 Calm 6 Fog FEW040 69 67     93%     30.12 30.11      
May 12 02:56 S 3 10 Clear CLR 66 64     93%       30.1      
May 12 01:56 Calm 10 Clear CLR 70 65     84%     30.11 30.11      
May 11 15:56 N 11 10 Mostly Clear FEW070 93 55     28%   91 30.03 30.03      
May 11 08:56 NW 7 10 Clear CLR 75 63     66%   75   30.07      
Jun 11 23:56 Calm 10 Mostly Cloudy BKN200 72 66     82%   73 30.19 30.19      
Jun 11 19:56 SSE 6 10 Mostly Cloudy FEW150 BKN220 77 63     62%   77 30.18 30.18      
Jun 10 22:56 SSE 6 10 Partly Cloudy SCT250 74 69     85%   75 30.17 30.17      
Jun 10 07:56 Calm 10 Mostly Clear FEW080 73 67     81%   74 30.1 30.09      
Jun 09 14:56 S 10 10 Mostly Cloudy BKN045 BKN250 84 65     53%   86 29.96 29.96      
Jun 09 08:56 SSE 5 10 Mostly Clear FEW250 71 62     73%   71 29.99 29.99      
Jun 08 21:56 E 6 10 Clear CLR 68 60     76%     29.88 29.88      
Notice The following observation data may not be complete
Jun 08 20:56   10 Clear CLR          %              
Jun 08 16:56 NNE 10 10 Partly Cloudy SCT040 76 56     50%   76 29.81 29.81      
Jun 08 08:15 N 14 2 Heavy Rain and Fog/Mist SCT010 BKN015 OVC035 61 59     93%     29.83   0    
Jun 07 18:56   4 Rain and Fog/Mist SCT011 SCT020 OVC050 66 63     90%     29.8 29.8 0    
Jun 07 14:56 NNE 14 10 Cloudy BKN010 BKN015 OVC025 70 67     90%     29.79 29.79 0    
Notice The following observation data may not be complete
Jun 07 14:33   10 Cloudy BKN010 BKN015 OVC020          %         0    
Jun 07 10:37 N 6 1.5 Heavy Rain and Fog/Mist FEW007 BKN025 OVC065 70 68     93%     29.79   0    
Jun 06 02:56 SW 9 10 Mostly Cloudy FEW050 BKN120 73 70     90%   74 29.78 29.78 0    
Jun 05 21:56 WSW 9 8 Thunderstorms and Rain SCT030 BKN045 OVC070 73 70     90%   74 29.81 29.81 0    
Jun 05 16:56   10 Thunderstorms and Rain SCT030 BKN060 BKN090 76 72     88%   77 29.78 29.78 0 0  
Jun 05 16:04 W 7 10 Mostly Cloudy SCT030 BKN045 BKN250 79 72     79%   82 29.75   0